TimeEST,TemperatureF,Dew PointF,Humidity,Sea Level PressureIn,VisibilityMPH,Wind Direction,Wind SpeedMPH,Gust SpeedMPH,PrecipitationIn,Events,Conditions,WindDirDegrees,DateUTC
12:15 AM,51.8,50.0,94,30.17,10.0,Calm,Calm,-,N/A,,Clear,0,2013-01-01 05:15:00
12:35 AM,51.8,50.0,94,30.16,10.0,Calm,Calm,-,N/A,,Clear,0,2013-01-01 05:35:00
12:55 AM,50.0,48.2,94,30.16,10.0,Calm,Calm,-,N/A,,Scattered Clouds,0,2013-01-01 05:55:00
1:15 AM,48.2,46.4,93,30.16,10.0,Calm,Calm,-,N/A,,Scattered Clouds,0,2013-01-01 06:15:00
1:35 AM,46.4,46.4,100,30.16,10.0,Calm,Calm,-,N/A,,Clear,0,2013-01-01 06:35:00
1:55 AM,46.4,46.4,100,30.16,10.0,Calm,Calm,-,N/A,,Clear,0,2013-01-01 06:55:00
2:15 AM,46.4,46.4,100,30.15,10.0,Calm,Calm,-,N/A,,Clear,0,2013-01-01 07:15:00
2:35 AM,46.4,46.4,100,30.14,7.0,Calm,Calm,-,N/A,,Clear,0,2013-01-01 07:35:00
2:55 AM,44.6,44.6,100,30.13,7.0,Calm,Calm,-,N/A,,Scattered Clouds,0,2013-01-01 07:55:00
3:15 AM,46.4,46.4,100,30.13,7.0,Calm,Calm,-,N/A,,Mostly Cloudy,0,2013-01-01 08:15:00
3:35 AM,46.4,46.4,100,30.13,7.0,Calm,Calm,-,N/A,,Mostly Cloudy,0,2013-01-01 08:35:00
3:55 AM,44.6,44.6,100,30.12,10.0,Calm,Calm,-,N/A,,Scattered Clouds,0,2013-01-01 08:55:00
4:15 AM,44.6,44.6,100,30.12,7.0,Calm,Calm,-,N/A,,Scattered Clouds,0,2013-01-01 09:15:00
4:35 AM,44.6,44.6,100,30.11,7.0,Calm,Calm,-,N/A,,Clear,0,2013-01-01 09:35:00
5:15 AM,44.6,44.6,100,30.09,7.0,Calm,Calm,-,N/A,,Clear,0,2013-01-01 10:15:00
5:35 AM,44.6,44.6,100,30.08,7.0,Calm,Calm,-,N/A,,Clear,0,2013-01-01 10:35:00
5:55 AM,44.6,44.6,100,30.08,7.0,Calm,Calm,-,N/A,,Clear,0,2013-01-01 10:55:00
6:15 AM,44.6,44.6,100,30.08,7.0,Calm,Calm,-,N/A,,Clear,0,2013-01-01 11:15:00
6:35 AM,44.6,44.6,100,30.08,7.0,Calm,Calm,-,N/A,,Clear,0,2013-01-01 11:35:00
6:55 AM,42.8,42.8,100,30.09,7.0,Calm,Calm,-,N/A,,Clear,0,2013-01-01 11:55:00
7:15 AM,42.8,42.8,100,30.09,7.0,Calm,Calm,-,N/A,,Clear,0,2013-01-01 12:15:00
7:35 AM,42.8,42.8,100,30.09,7.0,Calm,Calm,-,N/A,,Clear,0,2013-01-01 12:35:00
7:55 AM,42.8,42.8,100,30.09,5.0,Calm,Calm,-,N/A,,Clear,0,2013-01-01 12:55:00
8:15 AM,42.8,42.8,100,30.09,7.0,Calm,Calm,-,N/A,,Clear,0,2013-01-01 13:15:00
8:35 AM,44.6,44.6,100,30.09,7.0,Calm,Calm,-,N/A,,Clear,0,2013-01-01 13:35:00
8:55 AM,50.0,50.0,100,30.09,7.0,Calm,Calm,-,N/A,,Clear,0,2013-01-01 13:55:00
9:15 AM,53.6,51.8,94,30.10,10.0,South,4.6,-,N/A,,Clear,180,2013-01-01 14:15:00
9:35 AM,55.4,53.6,94,30.09,10.0,South,3.5,-,N/A,,Clear,190,2013-01-01 14:35:00
10:15 AM,60.8,55.4,82,30.10,10.0,South,4.6,-,N/A,,Clear,190,2013-01-01 15:15:00
10:35 AM,64.4,59.0,83,30.10,10.0,SSW,6.9,-,N/A,,Clear,200,2013-01-01 15:35:00
10:55 AM,66.2,59.0,78,30.09,10.0,SSW,9.2,16.1,N/A,,Clear,200,2013-01-01 15:55:00
11:15 AM,68.0,59.0,73,30.09,10.0,SSW,11.5,-,N/A,,Clear,210,2013-01-01 16:15:00
11:35 AM,69.8,60.8,73,30.08,10.0,SSW,8.1,-,N/A,,Clear,210,2013-01-01 16:35:00
11:55 AM,71.6,60.8,69,30.07,10.0,SSW,11.5,24.2,N/A,,Clear,200,2013-01-01 16:55:00
12:15 PM,73.4,60.8,65,30.05,10.0,SSW,10.4,20.7,N/A,,Clear,210,2013-01-01 17:15:00
12:35 PM,73.4,60.8,65,30.05,10.0,SW,15.0,21.9,N/A,,Clear,220,2013-01-01 17:35:00
1:15 PM,77.0,60.8,57,30.02,10.0,SW,12.7,19.6,N/A,,Clear,230,2013-01-01 18:15:00
1:35 PM,73.4,60.8,65,30.02,10.0,SSW,10.4,17.3,N/A,,Mostly Cloudy,200,2013-01-01 18:35:00
1:55 PM,75.2,62.6,65,30.01,10.0,SSW,9.2,-,N/A,,Overcast,210,2013-01-01 18:55:00
2:15 PM,77.0,60.8,57,29.99,10.0,SSW,12.7,16.1,N/A,,Scattered Clouds,210,2013-01-01 19:15:00
2:35 PM,77.0,60.8,57,29.99,10.0,SW,12.7,21.9,N/A,,Mostly Cloudy,230,2013-01-01 19:35:00
3:15 PM,77.0,62.6,61,29.99,10.0,SSW,8.1,18.4,N/A,,Overcast,210,2013-01-01 20:15:00
3:35 PM,75.2,62.6,65,29.98,10.0,SSW,11.5,17.3,N/A,,Overcast,210,2013-01-01 20:35:00
3:55 PM,75.2,62.6,65,29.98,10.0,SSW,9.2,16.1,N/A,,Overcast,210,2013-01-01 20:55:00
4:15 PM,75.2,62.6,65,29.97,10.0,SSW,6.9,-,N/A,,Overcast,210,2013-01-01 21:15:00
4:35 PM,73.4,62.6,69,29.97,10.0,SSW,5.8,-,N/A,,Overcast,200,2013-01-01 21:35:00
5:15 PM,73.4,62.6,69,29.97,10.0,SSW,6.9,-,N/A,,Overcast,210,2013-01-01 22:15:00
5:35 PM,73.4,62.6,69,29.97,10.0,SSW,6.9,-,N/A,,Overcast,210,2013-01-01 22:35:00
6:15 PM,71.6,62.6,73,29.97,10.0,SSW,5.8,-,N/A,,Overcast,210,2013-01-01 23:15:00
6:35 PM,71.6,62.6,73,29.97,10.0,SW,8.1,-,N/A,,Overcast,220,2013-01-01 23:35:00
6:55 PM,71.6,62.6,73,29.97,10.0,SSW,5.8,-,N/A,,Overcast,200,2013-01-01 23:55:00
7:15 PM,71.6,62.6,73,29.98,10.0,SSW,5.8,-,N/A,,Overcast,210,2013-01-02 00:15:00
7:35 PM,71.6,62.6,73,29.97,10.0,SW,5.8,-,N/A,,Overcast,230,2013-01-02 00:35:00
7:55 PM,71.6,62.6,73,29.98,10.0,SW,5.8,-,N/A,,Overcast,220,2013-01-02 00:55:00
8:15 PM,69.8,62.6,78,29.98,10.0,SSW,6.9,-,N/A,,Overcast,210,2013-01-02 01:15:00
8:35 PM,69.8,62.6,78,29.98,10.0,SSW,9.2,-,N/A,,Overcast,210,2013-01-02 01:35:00
8:55 PM,69.8,62.6,78,29.98,10.0,SSW,8.1,-,N/A,,Overcast,210,2013-01-02 01:55:00
9:15 PM,69.8,62.6,78,29.98,10.0,SW,6.9,-,N/A,,Overcast,220,2013-01-02 02:15:00
9:35 PM,69.8,62.6,78,29.98,10.0,SSW,12.7,-,N/A,,Overcast,210,2013-01-02 02:35:00
9:55 PM,69.8,62.6,78,29.98,10.0,SSW,8.1,-,N/A,,Overcast,200,2013-01-02 02:55:00
10:15 PM,68.0,62.6,83,29.98,10.0,SW,8.1,-,N/A,,Overcast,220,2013-01-02 03:15:00
10:35 PM,68.0,64.4,88,29.97,10.0,SSW,9.2,-,N/A,,Overcast,200,2013-01-02 03:35:00
10:55 PM,68.0,64.4,88,29.97,10.0,SSW,6.9,-,N/A,,Overcast,210,2013-01-02 03:55:00
11:15 PM,68.0,64.4,88,29.98,10.0,SSW,9.2,-,N/A,,Overcast,210,2013-01-02 04:15:00
11:35 PM,68.0,64.4,88,29.97,10.0,SSW,10.4,-,N/A,,Overcast,210,2013-01-02 04:35:00
11:55 PM,68.0,64.4,88,29.97,10.0,SW,8.1,-,N/A,,Overcast,220,2013-01-02 04:55:00